Location: Igon
(43.1667°N, 0.2333°W)
Time: 14:03:35
(UTC+00:00)

SJ 16-02 - Pass Details

Date: 29 November 2020
Orbit: 606 x 616 km, 75.0° (Epoch: 25 January)

Event Time Altitude Azimuth Distance (km) Brightness Sun altitude
Exits shadow 04:46:09 31° 17° (NNE) 1,081 2.6 -25.8°
Drops below altitude 10° 04:48:31 10° 18° (NNE) 1,985 4.1 -25.4°
Sets 04:50:46 0° 19° (NNE) 2,896 5.0 -25.0°
